Find Kosmos-2433

NORAD ID: 32277 Int'l Des: 2007-052 Owner: KVR/IACG Country: RU Constellation: GLONASS operational
MEOCIRCULAR

Current View

Loading 3D Globe...

About Kosmos-2433

Kosmos-2433 (NORAD 32277) is a GLONASS constellation satellite launched Oct 26, 2007 by KVR/IACG of RU. It operates in MEO, CIRCULAR orbit with a mass of 1450.00 kg.

About Kosmos-2433

Description loading...

Upcoming Passes

Passes for default location (London). Set your location on the main map for personalized predictions.

Altitude History

Loading altitude history...

Two-Line Element Set

1 32277U 07052C 26172.53242542 -.00000068 00000-0 00000-0 0 9995
2 32277 65.5872 315.7106 0015776 171.2479 193.6485 2.13209193145316
Epoch: Jun 21, 2026 • Age: 43 hours

Current Status

Altitude 19163.2 km
Velocity 3.95 km/s
Sub-Earth Point -58.12°S, 115.06°W
Launch Date Oct 26, 2007
Age 18.6 years
Type other

Technical Details

Classification Payload
Mass 1450.00 kg
Dry Mass 1200.00 kg
Total Mass 1450.00 kg
Length 4.00 m
Diameter 1.50 m
Span 7.80 m
Shape Cyl + Ant + 2 Pan
Manufacturer RESH
Bus Type Uragan
Phase Status In Orbit
Owner/State KVR/IACG/RU

Most Searched